Powrót do katalogu

STARLINK-31929

AktywnyŁącznośćVLEO
NORAD 59836·PAYLOAD·🇺🇸 United States

Wystrzelony May 23, 2024 z Cape Canaveral Space Force Station

Loading…

Następne Przeloty (najbliższe 24 godziny)

TLE

ŚwieżeSource: CelesTrak SupGP

Epoka: Sep 14, 2026, 22:46 UTC

1 59836C 24097B   26257.94909722  .00024105  00000+0  87313-3 0  2570
2 59836  43.0005 285.8290 0001307 272.3924 245.2539 15.27564546    15

Śledź STARLINK-31929 w czasie rzeczywistym z AllMySat

Download on the App Store